Terminal Aerodrome Forecast
Issued by NWS

Home | Current Version | Previous Version | Graphics & Text | Print | Product List | Glossary Off
Versions: 1 2 3 4 5 6 7 8 9 10 11 12 13 14 15 16 17 18 19 20 21 22 23 24 25 26 27 28 29 30 31 32 33 34 35 36 37 38 39 40 41 42

845
FTUS43 KDDC 241120
TAFGCK
TAF
KGCK 241120Z 2412/2512 34017G27KT P6SM BKN015
     FM242000 35019G28KT P6SM BKN035
     FM250100 36013KT P6SM SCT150
     FM250300 36008KT P6SM SCT250=

USA.gov is the U.S. government's official web portal to all federal, state and local government web resources and services.